Simultaneous Nadir Overpasses (SNOs) Predictions

Prediction of SNOs between LANDSAT-8 and NOAA-19 Satellite Orbit:

Table of predicted SNOs for the next 14.0 days since TLE Epoch: 8/25/2018
Index Date (LANDSAT-8) Time (LANDSAT-8) Lat,Lon (LANDSAT-8) SZA (LANDSAT-8 ) Date (NOAA-19) Time (NOAA-19) Lat,Lon (NOAA-19) SZA (NOAA-19 ) Distance(km) Time Diff (sec)
1 08/25/2018 09:48:25 -77.88,-132.13 112.49 08/25/2018 09:47:41 -77.91,-132.11 112.47 3.89 44
2 08/25/2018 10:37:51 77.87, 35.50 67.52 08/25/2018 10:38:45 77.86, 35.40 67.52 2.67 54
3 08/27/2018 15:22:09 77.89, -35.49 68.32 08/27/2018 15:21:18 77.89, -35.32 68.31 4.00 51
4 08/27/2018 16:11:37 -77.86, 132.00 111.72 08/27/2018 16:12:14 -77.88, 131.99 111.69 2.61 37
5 08/29/2018 20:55:54 -77.92, 61.21 110.85 08/29/2018 20:54:48 -77.93, 61.14 110.86 2.18 66
6 08/29/2018 21:45:21 77.87,-131.39 69.10 08/29/2018 21:45:51 77.88,-131.33 69.12 1.91 30
7 09/01/2018 02:29:38 77.93, 157.81 69.97 09/01/2018 02:28:25 77.96, 157.68 69.98 4.33 73
8 09/01/2018 03:19:06 -77.90, -34.69 110.06 09/01/2018 03:19:21 -77.91, -34.79 110.05 2.60 15
9 09/03/2018 08:52:50 77.90, 61.89 70.77 09/03/2018 08:52:57 77.92, 61.84 70.79 2.32 7
10 09/05/2018 14:26:35 -77.93, 158.59 108.36 09/05/2018 14:26:27 -77.91, 158.59 108.38 2.34 8
11 09/07/2018 20:00:19 77.92,-104.88 72.47 09/07/2018 20:00:02 77.93,-104.84 72.48 1.30 17




NCC Satellite Simultaneous Nadir Overpasses (SNOs) Prediction Service
